Tracking 30692 objects as of 16-Jun-2025
HD Live streaming from Space Station
objects crossing your sky now

STARLINK-31258

Track STARLINK-31258 now!
10-day predictions
STARLINK-31258 is classified as:


NORAD ID: 58829
Int'l Code: 2024-017D
Perigee: 481.6 km
Apogee: 483.2 km
Inclination: 53.2 °
Period: 94.1 minutes
Semi major axis: 6853 km
RCS: Unknown
Launch date: January 24, 2024
Source: United States (US)
Launch site: AIR FORCE WESTERN TEST RANGE (AFWTR)
Your satellite tracking list
Your tracking list is empty




NASA's NSSDC Master Catalog

Two Line Element Set (TLE):
1 58829U 24017D   25166.92871668  .00000313  00000-0  22707-4 0  9992
2 58829  53.1601   3.4230 0001174  89.7941 270.3194 15.30192392 79224
Source of the keplerian elements: AFSPC